EIN5TJ EIDW-LFMN

Flight info

Callsign EIN5TJ
Flight time N/A
Altitude 35000
Route PESIT4E PESIT DCT BAKUR DCT GUBJE DCT DAVAZ DCT AVZAC DCT ICOSA DCT RUHUN DCT UNZIB DCT NUCHU L18 MID UL612 RESMI UM728 KETEX DCT KOTIS DCT KUKOR DCT UTUVA DCT LERGA DCT LIQID DCT LATAM DCT TUNUR DCT NISAR NISAR7R
Aircraft A320/M-SDE3FGHIRWY/LB1

Departure

Time 2026-05-04 14:46
Airport Dublin Airport (EIDW)

Arrival

Time N/A
Airport Nice-Côte d'Azur Airport (LFMN)
Time Latitude Longitude Altitude Speed Heading
2026-05-04 14:46 53.17591 -5.93608 11928 ft 374 kts 172°
2026-05-04 14:46 53.15002 -5.92999 12557 ft 378 kts 172°
2026-05-04 14:47 53.12384 -5.92385 13166 ft 382 kts 172°
2026-05-04 14:47 53.09739 -5.91765 13808 ft 385 kts 172°
2026-05-04 14:47 53.07071 -5.91138 14356 ft 389 kts 171°
2026-05-04 14:47 53.04385 -5.90507 14913 ft 392 kts 171°
2026-05-04 14:48 53.01672 -5.89871 15446 ft 395 kts 171°
2026-05-04 14:48 52.98967 -5.89242 15971 ft 399 kts 171°
2026-05-04 14:48 52.96202 -5.88600 16512 ft 402 kts 171°
2026-05-04 14:48 52.93417 -5.87950 17067 ft 405 kts 171°
2026-05-04 14:49 52.90619 -5.87298 17636 ft 407 kts 171°
2026-05-04 14:49 52.87798 -5.86641 18177 ft 411 kts 171°
2026-05-04 14:49 52.84952 -5.85980 18668 ft 414 kts 170°
2026-05-04 14:49 52.82094 -5.85319 19125 ft 416 kts 170°
2026-05-04 14:50 52.79220 -5.84655 19576 ft 418 kts 170°
2026-05-04 14:50 52.76326 -5.83985 20014 ft 421 kts 170°
2026-05-04 14:50 52.73415 -5.83313 20435 ft 424 kts 170°
2026-05-04 14:50 52.70487 -5.82640 20844 ft 427 kts 170°
2026-05-04 14:51 52.67534 -5.81967 21247 ft 429 kts 169°
2026-05-04 14:51 52.64605 -5.81300 21632 ft 432 kts 169°
2026-05-04 14:51 52.61619 -5.80621 22027 ft 434 kts 169°
2026-05-04 14:51 52.58619 -5.79938 22402 ft 437 kts 169°
2026-05-04 14:52 52.55595 -5.79249 22759 ft 440 kts 169°
2026-05-04 14:52 52.52554 -5.78550 23098 ft 442 kts 168°
2026-05-04 14:52 52.49499 -5.77845 23429 ft 445 kts 168°
2026-05-04 14:52 52.46423 -5.77140 23742 ft 448 kts 168°
2026-05-04 14:53 52.43326 -5.76437 24028 ft 450 kts 168°
2026-05-04 14:53 52.40226 -5.75673 24318 ft 450 kts 164°
2026-05-04 14:53 52.37211 -5.74360 24610 ft 449 kts 159°
2026-05-04 14:53 52.34214 -5.72898 24940 ft 449 kts 159°
2026-05-04 14:54 52.31216 -5.71437 25221 ft 451 kts 159°
2026-05-04 14:54 52.28204 -5.69974 25477 ft 453 kts 159°
2026-05-04 14:54 52.25174 -5.68504 25734 ft 454 kts 159°
2026-05-04 14:54 52.23201 -5.67371 25889 ft 452 kts 153°
2026-05-04 14:55 52.20292 -5.65400 26134 ft 454 kts 153°
2026-05-04 14:55 52.16407 -5.62777 26446 ft 456 kts 153°
2026-05-04 14:55 52.13465 -5.60800 26713 ft 457 kts 154°
2026-05-04 14:55 52.10527 -5.58831 27002 ft 457 kts 154°
2026-05-04 14:56 52.08536 -5.57499 27163 ft 458 kts 153°
2026-05-04 14:56 52.05587 -5.55528 27379 ft 459 kts 153°
2026-05-04 14:56 52.02632 -5.53537 27593 ft 459 kts 153°
2026-05-04 14:56 51.99699 -5.51482 27882 ft 458 kts 152°
2026-05-04 14:57 51.96830 -5.49408 28165 ft 458 kts 151°
2026-05-04 14:57 51.93939 -5.47233 28438 ft 455 kts 147°
2026-05-04 14:57 51.91279 -5.44526 28734 ft 449 kts 139°
2026-05-04 14:57 51.88947 -5.41215 29024 ft 443 kts 130°
2026-05-04 14:58 51.86987 -5.37406 29314 ft 438 kts 121°
2026-05-04 14:58 51.85430 -5.33198 29604 ft 434 kts 112°
2026-05-04 14:58 51.84153 -5.28785 29899 ft 432 kts 111°
2026-05-04 14:58 51.82884 -5.24382 30188 ft 432 kts 111°
2026-05-04 14:59 51.81615 -5.19993 30448 ft 431 kts 112°
2026-05-04 14:59 51.80341 -5.15608 30689 ft 431 kts 112°
2026-05-04 14:59 51.77909 -5.06795 31156 ft 428 kts 105°
2026-05-04 15:00 51.77174 -5.02163 31384 ft 425 kts 98°
2026-05-04 15:00 51.76628 -4.97476 31612 ft 425 kts 98°
2026-05-04 15:00 51.76078 -4.92788 31842 ft 425 kts 98°
2026-05-04 15:01 51.74969 -4.83475 32302 ft 426 kts 99°
2026-05-04 15:01 51.74405 -4.78777 32453 ft 428 kts 99°
2026-05-04 15:01 51.73836 -4.74058 32642 ft 429 kts 99°
2026-05-04 15:01 51.73267 -4.69338 32861 ft 429 kts 99°
2026-05-04 15:02 51.72694 -4.64616 33093 ft 429 kts 100°
2026-05-04 15:02 51.72120 -4.59897 33323 ft 429 kts 100°
2026-05-04 15:02 51.71545 -4.55171 33545 ft 430 kts 101°
2026-05-04 15:02 51.70966 -4.50438 33715 ft 431 kts 101°
2026-05-04 15:03 51.70382 -4.45687 33953 ft 432 kts 101°
2026-05-04 15:03 51.69797 -4.40937 34161 ft 432 kts 101°
2026-05-04 15:03 51.69210 -4.36187 34345 ft 432 kts 101°
2026-05-04 15:03 51.68620 -4.31437 34505 ft 433 kts 101°
2026-05-04 15:04 51.68028 -4.26665 34657 ft 434 kts 101°
2026-05-04 15:04 51.67438 -4.21895 34816 ft 435 kts 101°
2026-05-04 15:04 51.66844 -4.17124 34965 ft 435 kts 101°
2026-05-04 15:04 51.66239 -4.12334 35020 ft 438 kts 101°
2026-05-04 15:05 51.65019 -4.02707 35016 ft 440 kts 102°
2026-05-04 15:05 51.63797 -3.93129 35017 ft 440 kts 102°
2026-05-04 15:06 51.62557 -3.83479 35018 ft 440 kts 102°
2026-05-04 15:07 51.60687 -3.68996 35025 ft 440 kts 102°
2026-05-04 15:07 51.59457 -3.59350 35025 ft 441 kts 98°
2026-05-04 15:08 51.58871 -3.49544 35028 ft 441 kts 96°
2026-05-04 15:08 51.58307 -3.39729 35031 ft 441 kts 96°
2026-05-04 15:09 51.57728 -3.29923 35023 ft 440 kts 96°
2026-05-04 15:09 51.57136 -3.20129 35025 ft 440 kts 96°
2026-05-04 15:10 51.56240 -3.05491 35046 ft 441 kts 96°
2026-05-04 15:11 51.55332 -2.90790 35051 ft 441 kts 97°
2026-05-04 15:11 51.54705 -2.80984 35026 ft 441 kts 97°
2026-05-04 15:12 51.54067 -2.71169 35023 ft 442 kts 97°
2026-05-04 15:12 51.53427 -2.61331 35013 ft 443 kts 97°
2026-05-04 15:13 51.52776 -2.51465 35014 ft 445 kts 97°
2026-05-04 15:13 51.52116 -2.41583 35015 ft 445 kts 97°
2026-05-04 15:14 51.51444 -2.31758 35007 ft 446 kts 97°
2026-05-04 15:14 51.50766 -2.21842 35008 ft 447 kts 97°
2026-05-04 15:15 51.50078 -2.11914 35005 ft 448 kts 97°
2026-05-04 15:15 51.49373 -2.01980 35009 ft 448 kts 98°
2026-05-04 15:16 51.48308 -1.87083 35012 ft 448 kts 98°
2026-05-04 15:17 51.47219 -1.72150 35016 ft 449 kts 100°
2026-05-04 15:17 51.45432 -1.62630 35016 ft 446 kts 117°
2026-05-04 15:17 51.44103 -1.58141 35018 ft 446 kts 117°
2026-05-04 15:18 51.41466 -1.49192 35007 ft 446 kts 117°
2026-05-04 15:19 51.37502 -1.35704 35001 ft 446 kts 117°
2026-05-04 15:19 51.33417 -1.22319 35001 ft 445 kts 123°
2026-05-04 15:20 51.30007 -1.14057 35005 ft 444 kts 127°
2026-05-04 15:20 51.26322 -1.06171 35013 ft 442 kts 130°
2026-05-04 15:21 51.22540 -0.98428 35012 ft 442 kts 130°
2026-05-04 15:22 51.16968 -0.86797 35034 ft 441 kts 129°
2026-05-04 15:22 51.11424 -0.75109 35039 ft 440 kts 129°
2026-05-04 15:23 51.07718 -0.67351 35017 ft 440 kts 130°
2026-05-04 15:23 51.03472 -0.60481 35008 ft 434 kts 146°
2026-05-04 15:24 50.93448 -0.49765 34996 ft 434 kts 148°
2026-05-04 15:25 50.88432 -0.44424 34999 ft 435 kts 148°
2026-05-04 15:26 50.80900 -0.36443 35001 ft 434 kts 148°
2026-05-04 15:26 50.73361 -0.28491 35011 ft 434 kts 148°
2026-05-04 15:27 50.65815 -0.20576 35007 ft 434 kts 148°
2026-05-04 15:28 50.58308 -0.12699 35007 ft 434 kts 148°
2026-05-04 15:29 50.50762 -0.04828 35022 ft 434 kts 148°
2026-05-04 15:30 50.33114 0.13442 34988 ft 435 kts 148°
2026-05-04 15:31 50.25530 0.21252 34994 ft 435 kts 148°
2026-05-04 15:32 50.12915 0.34207 34989 ft 435 kts 148°
2026-05-04 15:34 50.00263 0.47158 34983 ft 436 kts 149°
2026-05-04 15:34 49.92646 0.54901 34981 ft 436 kts 149°
2026-05-04 15:35 49.85070 0.62741 34980 ft 438 kts 143°
2026-05-04 15:36 49.78015 0.71656 34983 ft 438 kts 143°
2026-05-04 15:36 49.73275 0.77607 34991 ft 438 kts 143°
2026-05-04 15:37 49.68534 0.83534 34987 ft 438 kts 143°
2026-05-04 15:37 49.63794 0.89457 34989 ft 438 kts 143°
2026-05-04 15:38 49.59055 0.95366 34973 ft 438 kts 143°
2026-05-04 15:38 49.54305 1.01270 34975 ft 438 kts 143°
2026-05-04 15:39 49.49550 1.07164 34981 ft 438 kts 144°
2026-05-04 15:40 49.42423 1.15977 34983 ft 438 kts 144°
2026-05-04 15:40 49.37673 1.21823 34981 ft 437 kts 144°
2026-05-04 15:41 49.32952 1.27628 34980 ft 437 kts 144°
2026-05-04 15:41 49.28210 1.33450 34963 ft 437 kts 144°
2026-05-04 15:42 49.23453 1.39273 34972 ft 437 kts 144°
2026-05-04 15:42 49.18709 1.45058 34969 ft 436 kts 144°
2026-05-04 15:43 49.14761 1.49849 34972 ft 435 kts 144°
2026-05-04 15:43 49.10019 1.55606 34970 ft 435 kts 144°
2026-05-04 15:44 49.05271 1.61359 34967 ft 435 kts 145°
2026-05-04 15:44 49.00530 1.67093 34970 ft 435 kts 145°
2026-05-04 15:45 48.95783 1.72813 34973 ft 435 kts 145°
2026-05-04 15:45 48.91035 1.78519 34952 ft 435 kts 146°
2026-05-04 15:46 48.86280 1.84217 34951 ft 435 kts 146°
2026-05-04 15:46 48.81529 1.89909 34940 ft 435 kts 146°
2026-05-04 15:47 48.76772 1.95594 34939 ft 435 kts 146°
2026-05-04 15:47 48.72009 2.01260 34940 ft 435 kts 146°
2026-05-04 15:48 48.67274 2.06876 34943 ft 435 kts 146°
2026-05-04 15:48 48.60105 2.15348 34950 ft 436 kts 146°
2026-05-04 15:49 48.54904 2.19785 34949 ft 426 kts 163°
2026-05-04 15:49 48.49214 2.22105 34952 ft 423 kts 169°
2026-05-04 15:50 48.43507 2.24267 34950 ft 423 kts 168°
2026-05-04 15:50 48.37798 2.26439 34945 ft 423 kts 169°
2026-05-04 15:51 48.32093 2.28587 34946 ft 423 kts 169°
2026-05-04 15:51 48.26380 2.30741 34950 ft 423 kts 168°
2026-05-04 15:52 48.20725 2.32984 34951 ft 423 kts 168°
2026-05-04 15:52 48.15025 2.35284 34947 ft 423 kts 168°
2026-05-04 15:53 48.09360 2.37745 34949 ft 424 kts 166°
2026-05-04 15:53 48.03767 2.40593 34955 ft 425 kts 164°
2026-05-04 15:54 47.98182 2.43498 34947 ft 425 kts 165°
2026-05-04 15:54 47.92582 2.46313 34954 ft 424 kts 165°
2026-05-04 15:55 47.87013 2.49057 34958 ft 424 kts 166°
2026-05-04 15:55 47.81412 2.51796 34959 ft 423 kts 165°
2026-05-04 15:56 47.75815 2.54542 34936 ft 423 kts 166°
2026-05-04 15:56 47.70231 2.57285 34946 ft 423 kts 166°
2026-05-04 15:57 47.64646 2.60030 34949 ft 422 kts 166°
2026-05-04 15:57 47.59100 2.62735 34948 ft 422 kts 166°
2026-05-04 15:58 47.53512 2.65464 34945 ft 423 kts 166°
2026-05-04 15:58 47.47927 2.68190 34949 ft 423 kts 166°
2026-05-04 15:59 47.42323 2.70908 34951 ft 423 kts 166°
2026-05-04 15:59 47.36736 2.73610 34951 ft 422 kts 166°
2026-05-04 16:00 47.31186 2.76288 34944 ft 422 kts 166°
2026-05-04 16:00 47.25606 2.78984 34944 ft 422 kts 166°
2026-05-04 16:01 47.20021 2.81683 34948 ft 422 kts 166°
2026-05-04 16:01 47.14436 2.84366 34946 ft 422 kts 166°
2026-05-04 16:02 47.08846 2.87043 34935 ft 422 kts 166°